Погода Сегян-Кюель

Погода Сегян-Кюель : погода сейчас, прогноз погоды и архив. Всё, что Вы хотите узнать о погоде Сегян-Кюель!

Поиск расширенной информации на нашем сайте:

Другие новости

Новости СМИ2

Главная страница сайта

Новости сайта

03.07.2017

Напоминаем, что на нашем специализированном сайте Метеоцентр.Азия вы можете получить высокодетализированные автоматические прогнозы погоды по пунктам России, СНГ и мира в авиационном формате (включающие направление и скорость ветра, видимость, явления погоды, количество и форму облачности, нижнюю и верхнюю границу облачности).

Рекомендуем: недорогая финская сауна

Погода Сегян-Кюель - сегодня

Время (UTC), дата Ветер
(°,м/с) 
Видим.   Явления Облачность Т
(°С)
Тd
(°С)
f(%) Тe
(°С)
Pmin
(гПа)
dP
(гПа)
Po
(мм)
O2
(г/м3)
Тmin Tmax R s Состояние
почвы
21 21.05.18 020 (С) 20000 м    ясно 
+6.8 -4.8 43 +6  1010.6  -0.6  739  291           
03 22.05.18 110 (В) 20000 м    1/0 верхняя 
[Ci fib]
+13.2 -3.8 30 +14  1006.4  -2.6  736  283           
06 22.05.18 090 (В) 20000 м    9/0 верхняя 
[Ci fib]
+14.9 -5.2 25 +15  1004.1  -2.2  735  281           
09 22.05.18 100 (В) 20000 м    10/0 верхняя 
[Ci fib]
+14.9 -6.2 23 +15  1003.1  -1  734  281           
15 22.05.18 050 (СВ) 20000 м    10/0 средняя, верхняя 
[Ac trans|Ci ing]
+7.3 -7 35 +8  1004.4  0.2  734  289           
18 22.05.18 020 (С) 20000 м    3/0 средняя, верхняя 
[Ac trans|Ci fib]
+7.8 -7.4 33 +7  1004  -0.4  734  288           
21 22.05.18 070 (В) 20000 м    10/0 верхняя 
[Ci fib]
+9.8 -6.4 31 +10  1003.6  -0.2  734  286           
00 23.05.18 080 (В) 20000 м    4/0 средняя, верхняя 
[Ac trans|Ci fib]
+14.8 -5 25 +16  1002.7  -0.5  734  281  +7.1        влажная 
03 23.05.18 100 (В) 20000 м    10/0 средняя, верхняя 
[Ac trans|Ci fib]
+18.2 -5.3 20 +19  1001.3  -0.9  733  277           
06 23.05.18 090 (В) 20000 м    8/0 средняя, верхняя 
[Ac trans|Ci fib]
+20.2 -4.9 18 +20  999.8  -1.4  732  275           
09 23.05.18 110 (В) 20000 м    3/0 средняя, верхняя 
[Ac trans|Ci fib]
+21 -2 21 +21  999.6  -0.1  732  274           
12 23.05.18 140 (ЮВ) 20000 м    3/0 верхняя 
[Ci fib]
+18.5 -6.1 18 +19  1000.8  733  277    +21.7       
15 23.05.18 050 (СВ) 20000 м    3/0 верхняя 
[Ci fib]
+12.7 -5.7 27 +13  1002.3  0.8  733  283           
18 23.05.18 020 (С) н/о    н/о 
+12 -5.3 29 +11  1003.6  0.6  734  284           
21 23.05.18 020 (С) 20000 м    4/0 верхняя 
[Ci fib]
+13.6 -4.7 28 +13  1003.4  0.4  734  282           
00 24.05.18 040 (СВ) 20000 м    3/0 верхняя 
[Ci fib]
+18 -3.4 23 +19  1003.5  0.5  734  278  +10.4        влажная 
03 24.05.18 140 (ЮВ) 20000 м    4/0 средняя, верхняя 
[Ac trans|Ci fib]
+22.8 -2.9 18 +23  1002.5  -0.6  734  273           
06 24.05.18 090 (В) 20000 м    3/0 верхняя 
[Ci fib]
+23.7 -3.3 16 +24  1002.1  -0.4  734  272           
09 24.05.18 190 (Ю) 20000 м    8/0 верхняя 
[Ci fib]
+23.4 -2.6 18 +23  1002.4  0.3  734  273           
12 24.05.18 тихо ()   20000 м    4/0 верхняя 
[Ci fib]
+18.8 -4.4 20 +19  1003.9  1.1  735  277    +24.5       
15 24.05.18 330 (СЗ) 20000 м    ясно 
+8 -3.2 45 +9  1006.4  1.7  736  288           
18 24.05.18 360 (С) 20000 м    3/0 верхняя 
[Ci fib]
+8.5 -2.5 46 +9  1007.7  1.1  737  288           
21 24.05.18 330 (СЗ) 20000 м    1/0 верхняя 
[Ci fib]
+10.3 -1.5 44 +11  1008.8  1.3  738  287           
03 25.05.18 090 (В) 20000 м    8/0 верхняя 
[Ci fib]
+24.2 -0.8 19 +24  1007.2  -0.8  738  273           
06 25.05.18 250 (З) 20000 м    6/0 верхняя 
[Ci fib]
+25.6 -1.8 16 +26  1006.3  -0.8  737  272           
Время (UTC), дата Ветер
(°,м/с) 
Видим.   Явления Облачность Т
(°С)
Тd
(°С)
f(%) Тe
(°С)
Pmin
(гПа)
dP
(гПа)
Po
(мм)
O2
(г/м3)
Тmin Tmax R s Состояние
почвы

Для получения пояснительной информации подведите курсор к названию столбца.

ПОГОДА Сегян-Кюель - архив

Всё, что Вы хотите узнать о погоде Сегян-Кюель - удобно и подробно!

Выберите нужную дату (начиная с 1 января 2015* года) и нажмите кнопку "Найти".
Будут отображены архивные сводки погоды по пункту Сегян-Кюель, начиная с указанной даты.


Отображать данные в формате CSV (для использования в таблицах Excel)


Внимание! Наш архив погоды предназначен исключительно для личного некоммерческого использования в познавательных целях. Если Вам необходимы официальные справки о состоянии погоды (для производственных, юридических, коммерческих и т.п. целей), обращайтесь в органы Росгидромета.

*Примечание: данная дата относится к архиву по метеостанциям СССР (Россия, СНГ, Балтия).
Архив по метеостанциям Зарубежной Европы и Азии (кроме Китая) хранится 10 дней, по другим регионам земного шара (Китай, Африка, Америка, Австралия, Океания) - 1 день.

Сегян-Кюель - район местоположения метеостанции


Название, широта, долгота, высота метеостанции:
Сегян-Кюель 64.00°ш. 130.30°д. 211 м над ур. моря [Российская Федерация]

Дополнительная информация

В oтличие oт бoльшинства пoгoдных сайтoв мы публикуем пoдрoбную метеoинфoрмацию в детальнoм прoфессиoнальнoм фoрмате.

Характеристики температуры и влажнoсти вoздуха измеряются на высoте 2 м в тени вдали oт зданий и деревьев.
Скoрoсть ветра измеряется на высoте 10 м (на урoвне рoста челoвека скoрoсть ветра ниже в 1.5-2 раза). Если метеoстанция нахoдится в гoрoде или в лесу, тo скoрoсть ветра занижена на 2-4 м/с пo сравнению с oткрытым местoм. Скoрoсть ветра над акватoриями крупных рек и oзёр, а также на вершинах хoлмoв на 2-5 м/с выше, чем в oбычных услoвиях.
Атмoсфернoе давление в разных тoчках местнoсти мoжет значительнo oтличаться oт давления на метеoстанции, в зависимoсти oт услoвий рельефа (при пoдъёме на 10 м давление пoнижается примернo на 1 мм рт.ст.).